Wind_Speed
99 95 90 85 82 80 79 74 73 66 60 62 63 66 66 64 65 64 62 62 63 63 64 64 63 63 62 66 68 70 74 69 73 72 76 77 78 79 81 84 87 90 92
101 99 94 90 87 84 83 80 74 64 60 62 63 65 65 67 70 69 67 67 68 68 67 67 67 67 68 71 73 72 71 73 76 77 76 76 79 83 87 90 92 93 93
103 103 99 95 91 88 86 83 80 77 77 71 66 64 65 66 68 70 71 72 72 70 69 71 72 72 74 75 71 72 74 78 80 79 79 80 83 86 88 93 96 95 99
102 104 103 99 96 94 91 88 85 84 82 80 79 76 73 73 71 71 71 69 70 71 71 72 72 71 71 73 75 78 78 79 80 82 84 87 88 90 90 92 97 101 104
99 102 105 104 99 96 95 93 89 88 88 88 87 86 84 83 80 75 73 73 72 71 74 76 75 74 75 78 79 80 80 81 83 86 89 92 93 93 94 95 101 103 106
97 98 103 106 106 102 98 96 95 92 92 91 90 88 87 85 83 82 82 82 81 81 80 78 78 78 80 81 81 80 83 85 87 89 91 93 94 97 101 103 104 107 110
98 99 100 106 108 107 105 102 98 96 93 92 91 89 87 86 85 86 85 84 84 83 81 81 80 81 81 80 82 83 86 88 90 92 94 97 99 101 104 107 109 111 114
97 99 101 103 109 111 109 106 103 99 97 96 95 93 91 90 89 89 88 88 86 84 83 83 84 84 85 87 88 89 91 93 95 98 99 101 105 107 107 111 111 116 111
96 97 100 103 105 112 112 109 107 105 103 101 99 97 95 94 93 92 90 90 89 88 88 88 89 88 88 90 90 94 97 98 101 103 105 108 108 111 113 115 114 114 112
98 100 100 102 105 107 112 113 112 110 108 106 104 102 99 98 97 96 95 94 94 94 95 94 93 93 93 94 98 101 102 103 106 108 108 110 111 113 116 115 114 111 105
98 100 101 102 104 107 108 109 112 114 113 112 110 109 107 105 103 101 99 98 99 99 99 98 98 98 99 100 101 103 106 108 105 108 112 110 113 116 113 113 111 104 95
95 96 97 100 102 104 107 109 109 109 109 110 112 113 112 111 109 108 105 104 104 103 102 102 103 104 104 104 105 105 107 109 111 112 113 116 110 110 108 104 102 98 91
90 91 94 97 99 100 101 102 105 107 107 106 107 109 111 112 114 113 112 110 108 108 107 106 107 107 109 109 110 110 113 115 116 116 114 107 108 103 102 102 93 90 88
89 89 91 93 96 94 95 97 98 99 102 104 104 105 106 108 111 114 116 117 115 114 113 113 112 113 114 112 112 112 113 115 112 106 102 105 98 101 96 92 87 86 85
86 87 88 89 90 89 90 92 92 95 97 97 97 98 99 100 98 100 102 101 102 105 106 107 106 107 109 107 104 105 105 99 99 101 96 99 97 91 87 85 83 84 83
80 82 84 86 86 85 85 86 88 89 88 88 87 88 90 91 87 91 92 91 94 93 97 98 92 97 99 99 97 96 91 90 92 96 96 90 84 83 81 79 80 79 79
73 76 79 80 81 81 80 80 79 79 79 80 82 81 79 77 77 82 85 93 94 94 87 92 98 100 96 91 88 88 91 95 91 84 84 83 80 76 76 74 75 75 70
69 73 75 76 78 79 78 78 77 79 82 81 82 78 75 76 78 79 80 82 86 85 84 83 83 82 82 83 86 90 85 80 80 78 74 71 71 72 69 71 72 68 62
64 66 68 71 73 75 77 77 77 78 77 74 71 69 70 73 76 77 78 79 78 78 78 78 81 84 84 82 76 76 76 73 69 67 65 66 65 65 65 68 65 59 56
59 61 64 65 66 68 69 70 72 72 72 69 68 67 68 69 70 70 71 70 70 71 70 71 71 71 70 71 69 68 67 65 62 61 59 59 60 62 65 64 57 53 49
48 52 55 59 61 63 66 67 66 65 65 65 64 64 63 63 63 62 62 62 63 65 65 66 66 65 64 63 61 61 60 57 59 58 59 59 58 62 63 57 53 49 49
39 40 41 44 47 51 55 57 59 60 61 62 62 62 63 64 63 61 61 62 63 65 64 62 62 61 57 56 56 56 55 54 53 56 58 57 59 61 61 55 54 51 51
38 38 39 39 41 43 44 45 46 47 47 50 53 56 57 59 59 58 58 59 59 58 58 57 54 55 54 53 54 57 55 57 60 52 54 58 59 61 60 56 55 54 55
40 41 41 40 40 41 42 43 43 43 44 45 46 46 46 49 51 53 55 56 56 56 57 56 54 56 58 54 56 61 61 57 51 50 57 59 62 61 58 56 56 57 57
40 40 41 43 43 43 43 43 44 46 46 46 45 44 44 45 47 47 47 48 50 52 53 55 58 59 61 60 59 54 50 46 47 54 59 62 65 62 58 56 58 59 59
40 40 41 42 43 43 43 44 46 46 47 47 46 44 43 44 44 45 47 46 46 46 45 46 46 49 51 55 52 48 46 47 52 57 62 64 65 64 58 57 60 61 60
Wind_Direction
228 230 231 232 234 234 232 233 237 242 241 243 248 251 251 254 255 257 259 262 265 268 271 274 277 278 280 282 286 288 293 295 293 296 299 300 300 300 302 302 304 306 308
228 230 231 232 233 235 235 235 232 236 238 243 247 250 253 254 255 257 259 261 263 267 270 274 276 279 281 283 285 291 288 292 292 296 297 298 298 299 301 302 305 305 306
228 229 230 230 232 234 237 236 236 237 240 241 245 250 251 254 257 258 259 261 263 266 269 273 276 279 280 285 288 287 287 291 293 293 293 294 296 299 301 302 303 303 305
227 229 229 229 232 234 236 238 238 240 242 243 246 248 250 253 256 258 261 264 266 269 272 276 279 282 282 281 284 286 289 289 290 291 292 294 295 297 298 298 301 304 305
226 228 230 230 230 233 236 237 239 240 241 244 244 245 247 249 252 256 259 263 267 269 272 274 276 278 279 282 284 286 287 288 289 290 292 295 295 296 297 299 300 304 304
228 229 230 232 232 232 235 237 238 240 242 245 247 249 251 253 255 257 259 262 266 269 271 273 275 278 280 282 284 285 285 287 288 290 291 292 294 295 298 299 301 301 303
228 230 231 231 233 234 234 235 238 240 242 245 248 250 252 254 256 259 260 263 265 267 270 272 275 277 279 281 282 282 283 285 287 288 290 291 293 295 297 299 300 301 303
230 230 232 232 232 234 236 236 237 239 241 244 247 248 250 252 254 256 259 262 265 268 269 271 274 276 278 279 280 281 282 284 286 288 290 291 293 295 297 297 299 301 302
232 233 233 235 234 234 235 238 239 239 240 242 245 247 249 252 254 256 259 262 264 266 268 270 272 274 275 277 279 280 282 284 285 287 288 291 293 294 296 298 298 299 300
235 235 233 235 236 236 236 238 239 241 243 244 245 247 249 251 253 256 258 260 263 265 267 269 271 272 275 276 278 280 282 283 285 288 290 292 293 295 297 298 297 299 300
238 238 238 236 237 238 239 239 240 242 244 246 247 248 249 251 253 254 257 259 261 263 265 267 269 271 273 275 277 279 281 283 286 287 292 292 294 295 296 296 299 300 300
236 238 241 241 241 239 240 242 242 243 244 246 248 249 251 253 254 256 257 258 260 262 264 266 269 271 273 275 278 280 282 283 286 288 290 291 291 293 294 295 299 300 300
239 239 240 242 243 245 245 243 242 245 247 248 249 250 252 254 256 257 258 259 261 263 266 267 269 271 273 275 277 280 280 283 285 286 288 289 289 293 294 296 298 298 299
240 241 241 243 246 246 246 248 250 248 247 247 249 251 252 254 256 257 258 258 260 263 266 267 269 271 273 275 277 279 279 281 285 285 285 289 289 292 294 296 296 296 297
241 242 244 246 248 248 249 250 251 252 253 253 253 252 253 254 257 256 257 260 262 263 264 266 269 269 272 275 275 277 279 280 282 284 286 286 291 293 293 293 294 294 295
244 245 246 247 249 251 252 252 252 254 255 256 256 257 258 259 261 259 259 262 261 264 264 266 267 268 268 271 273 273 279 281 280 283 288 289 292 291 292 291 292 295 298
247 249 250 251 252 254 255 255 255 257 258 258 259 257 255 255 258 257 258 258 259 260 261 261 263 266 268 272 276 277 278 280 285 284 289 287 288 288 289 290 292 296 299
250 251 252 253 253 254 256 256 257 261 263 261 258 257 257 260 262 261 262 261 261 260 261 264 267 269 272 273 275 277 278 281 283 285 284 284 285 288 288 292 294 299 301
251 252 252 252 254 256 258 259 259 259 260 260 258 259 261 264 264 264 263 262 262 264 265 265 266 266 271 272 273 275 278 280 280 279 282 284 284 287 292 295 300 301 301
249 250 251 253 254 254 256 257 258 259 260 262 263 263 263 262 261 262 261 261 261 263 265 267 268 268 270 271 273 277 277 275 277 277 279 281 287 290 296 300 301 300 299
248 248 248 248 250 251 253 255 257 258 259 260 261 261 261 261 259 259 260 261 262 263 264 265 266 268 269 271 270 271 273 273 275 276 277 284 289 294 298 300 300 296 294
245 246 247 246 248 249 251 251 254 257 257 258 259 260 260 260 260 260 260 261 262 263 265 266 266 267 266 266 266 271 272 272 275 278 281 287 290 295 299 299 299 296 294
247 246 244 244 245 247 249 251 253 251 251 254 255 255 256 257 257 258 259 260 261 261 261 261 260 261 264 263 268 269 271 271 276 281 286 289 291 295 298 298 299 298 294
250 250 249 248 246 246 246 249 251 251 248 248 250 252 254 255 255 255 255 255 256 256 257 256 255 257 265 263 263 270 273 274 272 281 284 287 291 295 297 295 299 299 297
253 252 251 251 250 250 249 250 251 251 252 252 251 250 253 255 256 255 254 254 255 256 257 258 259 260 264 265 269 272 270 269 277 281 283 287 292 295 295 293 297 299 299
254 253 252 252 252 253 254 255 255 254 254 253 253 252 251 252 254 255 255 256 258 256 255 258 261 261 263 265 268 267 266 274 279 280 282 287 291 296 293 294 297 299 298
Height
10727 10735 10744 10751 10758 10766 10773 10778 10785 10790 10794 10798 10803 10807 10809 10813 10815 10818 10819 10820 10819 10820 10819 10819 10819 10818 10816 10813 10811 10807 10804 10797 10792 10788 10781 10775 10768 10762 10757 10750 10744 10739 10731
10714 10723 10733 10740 10746 10752 10760 10767 10774 10780 10784 10788 10791 10795 10798 10801 10803 10806 10808 10808 10808 10808 10808 10808 10807 10806 10804 10801 10799 10797 10791 10785 10778 10775 10771 10765 10754 10749 10739 10734 10728 10721 10716
10700 10708 10716 10724 10732 10740 10747 10755 10762 10768 10773 10777 10781 10784 10786 10788 10791 10793 10795 10796 10797 10797 10797 10796 10794 10793 10792 10788 10785 10781 10777 10773 10765 10761 10757 10754 10747 10737 10728 10716 10709 10704 10697
10684 10692 10701 10710 10717 10727 10734 10742 10749 10755 10761 10765 10768 10771 10774 10776 10778 10781 10783 10784 10785 10786 10785 10784 10783 10781 10778 10774 10770 10767 10763 10758 10753 10747 10740 10737 10733 10727 10722 10711 10696 10688 10680
10668 10678 10686 10694 10703 10711 10718 10726 10734 10740 10744 10748 10752 10755 10758 10761 10764 10767 10770 10772 10772 10773 10772 10771 10769 10767 10763 10760 10756 10753 10748 10743 10739 10733 10727 10720 10714 10708 10702 10698 10686 10677 10665
10658 10665 10672 10681 10688 10695 10703 10710 10717 10723 10728 10733 10738 10742 10747 10750 10752 10754 10756 10757 10758 10757 10757 10755 10754 10752 10749 10746 10743 10739 10733 10728 10723 10717 10712 10706 10700 10692 10685 10677 10670 10661 10651
10640 10649 10658 10666 10672 10678 10684 10692 10700 10708 10714 10719 10724 10728 10732 10735 10737 10738 10740 10741 10742 10742 10742 10741 10739 10736 10733 10730 10727 10724 10719 10713 10709 10702 10696 10690 10684 10678 10670 10663 10653 10644 10635
10627 10634 10640 10646 10654 10660 10666 10673 10682 10690 10696 10702 10706 10710 10715 10718 10720 10722 10724 10726 10727 10727 10726 10725 10724 10721 10718 10715 10711 10706 10701 10697 10691 10686 10680 10673 10667 10661 10655 10646 10639 10630 10619
10612 10618 10623 10629 10637 10644 10650 10658 10665 10670 10676 10682 10688 10693 10697 10700 10703 10706 10709 10710 10711 10711 10711 10710 10708 10705 10701 10697 10693 10688 10684 10679 10673 10668 10663 10656 10650 10643 10636 10628 10620 10613 10604
10591 10598 10605 10611 10617 10626 10634 10641 10647 10653 10659 10665 10670 10676 10680 10683 10686 10689 10691 10693 10694 10694 10693 10691 10689 10687 10684 10680 10674 10670 10666 10660 10655 10649 10643 10638 10630 10624 10616 10608 10600 10593 10586
10572 10579 10587 10594 10600 10606 10614 10622 10629 10634 10641 10647 10653 10657 10660 10664 10668 10671 10673 10674 10674 10673 10673 10672 10670 10667 10663 10660 10655 10650 10645 10641 10635 10628 10625 10618 10611 10603 10597 10588 10581 10572 10564
10552 10560 10567 10574 10580 10587 10595 10602 10608 10615 10622 10629 10634 10637 10641 10645 10648 10651 10654 10654 10653 10653 10652 10650 10648 10645 10643 10639 10636 10632 10626 10621 10617 10612 10606 10599 10591 10585 10577 10570 10562 10553 10545
10536 10543 10549 10554 10562 10570 10575 10583 10591 10598 10603 10608 10613 10617 10621 10625 10627 10630 10632 10634 10634 10632 10631 10629 10627 10626 10622 10618 10615 10612 10606 10601 10598 10592 10587 10579 10573 10567 10559 10552 10543 10535 10527
10515 10521 10528 10534 10540 10548 10555 10562 10568 10575 10582 10588 10593 10597 10600 10604 10607 10608 10610 10611 10611 10611 10610 10607 10606 10605 10601 10598 10594 10591 10586 10582 10580 10573 10566 10562 10554 10549 10542 10532 10525 10517 10510
10496 10503 10510 10518 10524 10530 10536 10542 10548 10552 10557 10562 10569 10573 10578 10582 10584 10586 10588 10589 10588 10586 10586 10585 10583 10582 10580 10579 10573 10571 10567 10563 10559 10554 10548 10542 10537 10530 10522 10515 10507 10500 10492
10486 10492 10498 10502 10506 10511 10517 10522 10527 10532 10539 10544 10547 10551 10554 10558 10559 10559 10560 10562 10561 10562 10562 10563 10561 10560 10558 10556 10554 10551 10548 10545 10538 10534 10529 10522 10517 10511 10504 10497 10490 10483 10476
10473 10475 10478 10483 10488 10494 10498 10503 10506 10510 10515 10519 10524 10528 10530 10532 10534 10536 10537 10537 10539 10538 10539 10539 10539 10538 10538 10538 10534 10531 10528 10524 10521 10515 10511 10505 10499 10492 10487 10481 10474 10468 10461
10457 10459 10462 10466 10470 10474 10477 10481 10484 10489 10495 10497 10501 10504 10506 10508 10511 10514 10515 10515 10516 10517 10517 10517 10517 10518 10518 10515 10512 10510 10508 10504 10501 10498 10492 10487 10482 10477 10471 10465 10458 10451 10443
10439 10442 10445 10447 10451 10454 10457 10461 10465 10470 10475 10478 10480 10482 10483 10485 10489 10491 10492 10493 10495 10497 10498 10497 10496 10496 10497 10494 10492 10489 10488 10487 10484 10480 10476 10472 10468 10462 10457 10450 10443 10435 10428
10422 10425 10428 10431 10434 10437 10440 10443 10447 10451 10453 10455 10457 10460 10462 10465 10467 10470 10471 10473 10474 10476 10477 10476 10476 10476 10475 10474 10474 10473 10471 10469 10467 10464 10461 10457 10453 10447 10441 10435 10429 10422 10417
10406 10409 10412 10415 10418 10422 10424 10427 10429 10432 10434 10435 10437 10439 10442 10445 10448 10450 10452 10453 10455 10456 10457 10457 10458 10458 10458 10457 10455 10454 10454 10453 10452 10449 10446 10443 10438 10433 10427 10421 10415 10409 10405
10394 10396 10398 10401 10404 10406 10408 10411 10412 10415 10417 10418 10421 10423 10425 10427 10429 10431 10433 10435 10437 10438 10439 10440 10440 10440 10440 10440 10440 10440 10440 10439 10438 10435 10431 10428 10424 10419 10413 10407 10401 10396 10392
10381 10383 10386 10388 10390 10392 10393 10396 10397 10400 10401 10402 10404 10406 10408 10409 10411 10414 10416 10418 10420 10421 10422 10423 10423 10424 10425 10426 10426 10424 10425 10424 10422 10420 10418 10414 10409 10405 10399 10394 10388 10382 10377
10368 10371 10373 10375 10376 10378 10380 10382 10383 10385 10387 10388 10389 10391 10392 10393 10395 10398 10400 10402 10404 10405 10406 10407 10408 10409 10409 10410 10410 10409 10409 10408 10407 10406 10403 10399 10394 10390 10385 10380 10374 10368 10363
10355 10357 10359 10361 10363 10365 10368 10369 10370 10371 10373 10374 10376 10378 10379 10380 10382 10383 10385 10387 10388 10389 10391 10392 10393 10394 10394 10395 10395 10395 10394 10394 10393 10391 10387 10383 10379 10375 10371 10366 10360 10354 10348
10343 10345 10346 10348 10350 10352 10354 10356 10357 10358 10359 10361 10363 10364 10366 10368 10369 10370 10372 10373 10374 10376 10376 10377 10379 10379 10379 10379 10380 10380 10381 10380 10379 10376 10371 10368 10364 10360 10354 10350 10345 10338 10333